{"data":{"norad_id":67553,"intl_designator":"2026-014X","name":"STARLINK-36569","alt_names":[],"object_type":"PAYLOAD","status":"ACTIVE","operator":null,"country":"US","launch_date":"2026-01-22","launch_site_code":"AFWTR","launch_vehicle":null,"mission":null,"orbit_class":"UNKNOWN","rcs_meters":null,"size_class":null,"mass_kg":null,"dimensions":null,"purposes":["comms"],"wikipedia_slug":null,"has_3d_model":false,"image_url":null,"decayed_at":null,"tle_current":{"epoch":"2026-09-19T22:26:47.642496Z","epoch_age_seconds":121088,"freshness":"FRESH","line1":"1 67553U 26014X   26262.93527364  .00017173  00000+0  53291-3 0  9997","line2":"2 67553  97.2857 148.3409 0002056  93.8218 266.3260 15.33452208 38547","mean_motion":15.33452208,"eccentricity":0.0002056,"inclination_deg":97.2857,"raan_deg":148.3409,"arg_perigee_deg":93.8218,"mean_anomaly_deg":266.326,"bstar":0.00053291,"rev_number":3854,"period_min":93.905763250236,"perigee_km":464.11467239079,"apogee_km":466.92878486,"semimajor_km":6843.6587286254,"source":"CELESTRAK","updated_at":"2026-09-20T09:00:43.572277Z"}}}